Home   Weather   Lillehammer   Past weeks

Flag for Norway Past Weather in Lillehammer, Norway — Yesterday and Last 2 Weeks

Now
33 °F

Chilly.


Feels Like: 28 °F
Forecast: 24 / 40 °F
Wind: 5 mph from North

Location: Lillehammer-Saetherengen

Current Time: Apr 25, 2017 at 3:07:58 am

Latest Report: Apr 25, 2017 at 2:00 am


Visibility: N/A

Pressure: 29.44 "Hg

Humidity: 74%

Dew Point: 25 °F

Location of LillehammerLocation

Past Weather in Lillehammer — Graph

°F

Lillehammer Temperature Yesterday

Maximum temperature yesterday: 34 °F (at 6:00 pm)
Minimum temperature yesterday: 29 °F (at 8:00 am)
Average temperature yesterday: 31 °F

High & Low Weather Summary for the Past Weeks

 TemperatureHumidityPressure
High55 °F (Apr 20, 5:00 pm)99% (Apr 17, 6:00 am)30.55 "Hg (Apr 17, 6:00 am)
Low21 °F (Apr 18, 7:00 am)24% (Apr 23, 4:00 pm)29.38 "Hg (Apr 10, 6:00 am)
Average36 °F65%29.83 "Hg
* Reported Apr 10 2:00 am — Apr 25 2:00 am, Lillehammer, Weather by CustomWeather, © 2017

Note: Actual official high and low records may vary slightly from our data, if they occured in-between our weather recording intervals... More about our weather records

Advertising

Lillehammer Weather History for the Previous 24 Hours

Scroll right to see more
 ConditionsComfort  
Time TempWeatherWind HumidityBarometerVisibility
2:00 am
Tue, Apr 25
33 °FChilly.5 mph74%29.44 "HgN/A
1:00 am32 °FChilly.7 mph79%29.44 "HgN/A
12:00 am32 °FChilly.6 mph82%29.44 "HgN/A
11:00 pm
Mon, Apr 24
34 °FChilly.7 mph70%29.41 "HgN/A
8:00 pm34 °FChilly.6 mph72%29.38 "HgN/A
7:00 pm34 °FChilly.5 mph72%29.38 "HgN/A
6:00 pm34 °FChilly.5 mph73%29.38 "HgN/A
5:00 pm33 °FChilly.3 mph82%29.41 "HgN/A
4:00 pm32 °FChilly.3 mph86%29.41 "HgN/A
3:00 pm32 °FChilly.2 mph91%29.41 "HgN/A
2:00 pm31 °FChilly.2 mph93%29.41 "HgN/A
1:00 pm30 °FChilly.3 mph96%29.44 "HgN/A
12:00 pm29 °FChilly.3 mph96%29.47 "HgN/A
11:00 am29 °FChilly.3 mph96%29.47 "HgN/A
10:00 am29 °FChilly.3 mph95%29.50 "HgN/A
9:00 am29 °FChilly.1 mph93%29.50 "HgN/A
8:00 am29 °FChilly.2 mph91%29.55 "HgN/A
7:00 am31 °FChilly.2 mph77%29.56 "HgN/A
6:00 am31 °FChilly.1 mph73%29.58 "HgN/A
5:00 am31 °FChilly.No wind66%29.61 "HgN/A
4:00 am31 °FChilly.1 mph64%29.64 "HgN/A
3:00 am32 °FChilly.1 mph59%29.67 "HgN/A
Weather by CustomWeather, © 2017

See weather overviewHow to use our weather pages